When you browse on this site, cookies collect data to enhance your experience and personalize the content and advertising you see.
Visit our Privacy Policy to learn more. By continuing to use the site, you agree to this use of cookies and data.
  • In Sweden
  • List of Countries
  • For 7 days
  • Water Temperature
  • Weather Map
  • Weather Widgets
  • user-avatar
    Login

    Hourly Weather Aguilar De Segarra

    Today, 29 May, Friday

    Time Temperature Precipitation Wind Pressure Humidity
    00:00 +16°C° 0 mm 1 mps 716 mmHg 70%
    01:00 +16°C° 0 mm 1 mps 715 mmHg 70%
    02:00 +16°C° 0 mm 1 mps 715 mmHg 70%
    03:00 +15°C° 0 mm 1 mps 715 mmHg 70%
    04:00 +16°C° 0 mm 1 mps 715 mmHg 68%
    05:00 +18°C° 0 mm 1 mps 715 mmHg 65%
    06:00 +17°C° 0 mm 0 mps 715 mmHg 62%
    07:00 +21°C° 0 mm 1 mps 715 mmHg 56%
    08:00 +23°C° 0 mm 1 mps 715 mmHg 50%
    09:00 +26°C° 0 mm 1 mps 715 mmHg 44%
    10:00 +26°C° 0.1 mm 2 mps 715 mmHg 41%
    11:00 +27°C° 0.1 mm 2 mps 715 mmHg 38%
    12:00 +28°C° 0.1 mm 3 mps 714 mmHg 35%
    13:00 +28°C° 0.1 mm 3 mps 714 mmHg 36%
    14:00 +28°C° 0.1 mm 4 mps 714 mmHg 38%
    15:00 +28°C° 0.1 mm 4 mps 713 mmHg 39%
    16:00 +25°C° 1.7 mm 4 mps 713 mmHg 50%
    17:00 +21°C° 1.7 mm 4 mps 713 mmHg 61%
    18:00 +19°C° 1.7 mm 4 mps 712 mmHg 72%
    19:00 +17°C° 1.8 mm 3 mps 713 mmHg 76%
    20:00 +16°C° 1.8 mm 2 mps 713 mmHg 80%
    21:00 +15°C° 1.8 mm 1 mps 714 mmHg 84%
    22:00 +15°C° 0 mm 1 mps 714 mmHg 83%
    23:00 +15°C° 0 mm 1 mps 713 mmHg 83%

    Tomorrow, 30 May, Saturday

    Time Temperature Precipitation Wind Pressure Humidity
    00:00 +15°C° 0 mm 1 mps 713 mmHg 82%
    01:00 +15°C° 0 mm 1 mps 713 mmHg 82%
    02:00 +15°C° 0 mm 1 mps 713 mmHg 82%
    03:00 +15°C° 0 mm 1 mps 713 mmHg 81%
    04:00 +15°C° 0 mm 1 mps 713 mmHg 80%
    05:00 +16°C° 0 mm 1 mps 713 mmHg 79%
    06:00 +16°C° 0 mm 1 mps 713 mmHg 77%
    07:00 +19°C° 0 mm 1 mps 714 mmHg 70%
    08:00 +21°C° 0 mm 1 mps 714 mmHg 64%
    09:00 +21°C° 0 mm 2 mps 714 mmHg 57%
    10:00 +23°C° 0 mm 2 mps 714 mmHg 54%
    11:00 +24°C° 0 mm 3 mps 714 mmHg 50%
    12:00 +25°C° 0 mm 3 mps 714 mmHg 47%
    13:00 +25°C° 0 mm 4 mps 714 mmHg 49%
    14:00 +25°C° 0 mm 4 mps 713 mmHg 51%
    15:00 +25°C° 0 mm 4 mps 713 mmHg 53%
    16:00 +23°C° 0.1 mm 4 mps 713 mmHg 57%
    17:00 +21°C° 0.1 mm 3 mps 712 mmHg 62%
    18:00 +20°C° 0.1 mm 3 mps 712 mmHg 66%
    19:00 +19°C° 0 mm 2 mps 712 mmHg 71%
    20:00 +18°C° 0 mm 2 mps 712 mmHg 76%
    21:00 +16°C° 0 mm 1 mps 712 mmHg 82%
    22:00 +16°C° 0 mm 1 mps 712 mmHg 83%
    23:00 +16°C° 0 mm 1 mps 712 mmHg 85%

    Day after tomorrow, 31 May, Sunday

    Time Temperature Precipitation Wind Pressure Humidity
    00:00 +15°C° 0 mm 1 mps 712 mmHg 87%
    01:00 +15°C° 0 mm 1 mps 712 mmHg 87%
    02:00 +15°C° 0 mm 1 mps 712 mmHg 87%
    03:00 +15°C° 0 mm 1 mps 712 mmHg 87%
    04:00 +14°C° 0 mm 0 mps 712 mmHg 84%
    05:00 +15°C° 0 mm 0 mps 712 mmHg 80%
    06:00 +16°C° 0 mm 0 mps 712 mmHg 77%
    07:00 +20°C° 0 mm 1 mps 712 mmHg 68%
    08:00 +20°C° 0 mm 2 mps 713 mmHg 59%
    09:00 +23°C° 0 mm 2 mps 713 mmHg 50%
    10:00 +24°C° 0 mm 3 mps 713 mmHg 48%
    11:00 +25°C° 0 mm 3 mps 713 mmHg 45%
    12:00 +26°C° 0 mm 4 mps 713 mmHg 43%
    13:00 +26°C° 0 mm 4 mps 713 mmHg 44%
    14:00 +26°C° 0 mm 5 mps 712 mmHg 45%
    15:00 +26°C° 0 mm 5 mps 712 mmHg 47%
    16:00 +25°C° 0 mm 5 mps 712 mmHg 50%
    17:00 +22°C° 0 mm 4 mps 712 mmHg 54%
    18:00 +21°C° 0 mm 3 mps 711 mmHg 57%
    19:00 +20°C° 0.1 mm 3 mps 711 mmHg 63%
    20:00 +18°C° 0.1 mm 2 mps 712 mmHg 68%
    21:00 +18°C° 0.1 mm 1 mps 712 mmHg 73%
    22:00 +18°C° 0 mm 1 mps 712 mmHg 75%
    23:00 +16°C° 0 mm 1 mps 712 mmHg 77%

    1 June, Monday

    Time Temperature Precipitation Wind Pressure Humidity
    00:00 +16°C° 0 mm 1 mps 712 mmHg 78%
    01:00 +16°C° 0 mm 1 mps 712 mmHg 80%
    02:00 +15°C° 0 mm 1 mps 711 mmHg 82%
    03:00 +14°C° 0 mm 0 mps 711 mmHg 84%
    04:00 +15°C° 0.2 mm 0 mps 711 mmHg 83%
    05:00 +15°C° 0.2 mm 0 mps 711 mmHg 82%
    06:00 +16°C° 0.2 mm 0 mps 711 mmHg 80%
    07:00 +19°C° 0.2 mm 1 mps 712 mmHg 74%
    08:00 +21°C° 0.2 mm 1 mps 712 mmHg 68%
    09:00 +22°C° 0.2 mm 1 mps 713 mmHg 62%
    10:00 +23°C° 0.1 mm 2 mps 713 mmHg 59%
    11:00 +24°C° 0.1 mm 2 mps 713 mmHg 56%
    12:00 +26°C° 0.1 mm 3 mps 713 mmHg 53%
    13:00 +26°C° 1.1 mm 3 mps 713 mmHg 54%
    14:00 +26°C° 1.1 mm 3 mps 713 mmHg 55%
    15:00 +26°C° 1.1 mm 2 mps 713 mmHg 56%
    16:00 +25°C° 0.9 mm 2 mps 713 mmHg 61%
    17:00 +24°C° 0.9 mm 3 mps 713 mmHg 65%
    18:00 +22°C° 0.9 mm 3 mps 713 mmHg 70%
    19:00 +20°C° 0.3 mm 2 mps 713 mmHg 75%
    20:00 +19°C° 0.3 mm 2 mps 713 mmHg 80%
    21:00 +18°C° 0.3 mm 1 mps 714 mmHg 85%
    22:00 +18°C° 0 mm 1 mps 713 mmHg 86%
    23:00 +16°C° 0 mm 1 mps 713 mmHg 87%

    2 June, Tuesday

    Time Temperature Precipitation Wind Pressure Humidity
    00:00 +16°C° 0 mm 1 mps 713 mmHg 87%
    01:00 +16°C° 0 mm 1 mps 713 mmHg 87%
    02:00 +16°C° 0 mm 1 mps 713 mmHg 87%
    03:00 +16°C° 0 mm 1 mps 713 mmHg 87%
    04:00 +16°C° 0 mm 1 mps 713 mmHg 84%
    05:00 +16°C° 0 mm 0 mps 713 mmHg 81%
    06:00 +17°C° 0 mm 0 mps 713 mmHg 78%
    07:00 +21°C° 0 mm 1 mps 714 mmHg 71%
    08:00 +21°C° 0 mm 2 mps 714 mmHg 63%
    09:00 +24°C° 0 mm 2 mps 714 mmHg 56%
    10:00 +25°C° 0 mm 3 mps 714 mmHg 54%
    11:00 +26°C° 0 mm 3 mps 714 mmHg 52%
    12:00 +26°C° 0 mm 4 mps 714 mmHg 49%
    13:00 +26°C° 0.3 mm 4 mps 714 mmHg 50%
    14:00 +26°C° 0.3 mm 4 mps 713 mmHg 50%
    15:00 +26°C° 0.3 mm 3 mps 713 mmHg 50%
    16:00 +25°C° 0.2 mm 3 mps 712 mmHg 53%
    17:00 +24°C° 0.2 mm 3 mps 712 mmHg 55%
    18:00 +23°C° 0.2 mm 2 mps 712 mmHg 58%
    19:00 +21°C° 0.2 mm 2 mps 712 mmHg 62%
    20:00 +21°C° 0.2 mm 1 mps 712 mmHg 66%
    21:00 +19°C° 0.2 mm 1 mps 712 mmHg 71%
    22:00 +19°C° 0 mm 1 mps 711 mmHg 72%
    23:00 +19°C° 0 mm 1 mps 711 mmHg 73%

    3 June, Wednesday

    Time Temperature Precipitation Wind Pressure Humidity
    00:00 +19°C° 0 mm 1 mps 711 mmHg 74%
    01:00 +18°C° 0 mm 1 mps 710 mmHg 76%
    02:00 +18°C° 0 mm 1 mps 710 mmHg 78%
    03:00 +16°C° 0 mm 1 mps 709 mmHg 80%
    04:00 +18°C° 0 mm 1 mps 709 mmHg 79%
    05:00 +18°C° 0 mm 1 mps 709 mmHg 79%
    06:00 +19°C° 0 mm 1 mps 709 mmHg 78%
    07:00 +20°C° 0 mm 1 mps 709 mmHg 71%
    08:00 +21°C° 0 mm 2 mps 710 mmHg 64%
    09:00 +23°C° 0 mm 2 mps 710 mmHg 56%
    10:00 +25°C° 0 mm 3 mps 710 mmHg 53%
    11:00 +26°C° 0 mm 3 mps 710 mmHg 50%
    12:00 +27°C° 0 mm 4 mps 710 mmHg 47%
    13:00 +27°C° 0.1 mm 4 mps 709 mmHg 47%
    14:00 +28°C° 0.1 mm 3 mps 709 mmHg 47%
    15:00 +28°C° 0.1 mm 3 mps 708 mmHg 47%
    16:00 +26°C° 0.1 mm 3 mps 708 mmHg 52%
    17:00 +25°C° 0.1 mm 3 mps 708 mmHg 56%
    18:00 +24°C° 0.1 mm 3 mps 707 mmHg 61%
    19:00 +21°C° 0.1 mm 3 mps 707 mmHg 66%
    20:00 +20°C° 0.1 mm 2 mps 707 mmHg 70%
    21:00 +19°C° 0.1 mm 1 mps 708 mmHg 75%
    22:00 +19°C° 0 mm 1 mps 708 mmHg 76%
    23:00 +19°C° 0 mm 1 mps 707 mmHg 76%
    Show more